Flag Weather past 2 weeks in Guilin, Guangxi, China

Now
79 °F

Partly sunny.


Feels Like: 81 °F
Forecast: 58 / 68 °F
Wind: 8 mph from South

Location: Guilin Airport

Current Time: Nov 24, 2014 at 1:27:05 PM

Latest Report: Nov 24, 2014 at 1:00 PM


Visibility: 5 mi

Pressure: 29.95 "Hg

Humidity: 61%

Dew point: 64 °F

Location of GuilinLocation

Historic Weather in Guilin — Graph

°F

Guilin temperature yesterday

Maximum temperature yesterday: 77 °F (at 2:00 PM)
Minimum temperature yesterday: 63 °F (at 5:00 AM)
Average temperature yesterday: 68 °F

Past Weeks' High & Low Weather Summary

 TemperatureHumidityPressure
High77 °F (Nov 23, 2:00 PM)100% (Nov 10, 8:00 AM)30.36 "Hg (Nov 10, 8:00 AM)
Low48 °F (Nov 14, 7:00 AM)33% (Nov 14, 2:00 PM)29.92 "Hg (Nov 23, 3:00 PM)
Average60 °F78%30.15 "Hg
* Reported Nov 9 12:00 Noon — Nov 24 12:00 Noon, Guilin, Weather by CustomWeather, © 2014

Note: Actual official high and low records may vary slightly from our data, if they occured in-between our weather recording intervals... More about our weather records

Advertising

Guilin weather history for previous 24 hours

 ConditionsComfort  
Time TempWeatherWind HumidityBarometerVisibility
12:00 PM
Nov 24
77 °FPartly sunny.8 mph65%29.98 "Hg4 mi
11:00 AM75 °FHaze.1 mph69%30.01 "Hg3 mi
10:00 AM72 °FFog.1 mph78%30.04 "Hg2 mi
9:00 AM68 °FFog.1 mph94%30.04 "Hg1 mi
8:00 AM64 °FFog.No wind94%30.01 "Hg1 mi
7:00 AM63 °FFog.No wind100%29.98 "Hg1 mi
6:00 AM64 °FFog.1 mph94%29.98 "Hg1 mi
5:00 AM64 °FFog.No wind94%29.98 "Hg1 mi
4:00 AM64 °FFog.3 mph94%29.98 "Hg1 mi
3:00 AM64 °FFog.1 mph94%29.98 "Hg1 mi
2:00 AM64 °FFog.1 mph94%29.98 "Hg1 mi
1:00 AM64 °FFog.1 mph94%29.98 "Hg1 mi
12:00 AM64 °FFog.1 mph94%30.01 "Hg1 mi
11:00 PM
Nov 23
63 °FFog.No wind100%30.01 "Hg1 mi
10:00 PM64 °FFog.No wind94%29.98 "Hg1 mi
9:00 PM64 °FFog.1 mph94%29.98 "Hg1 mi
8:00 PM66 °FFog.1 mph94%29.95 "Hg1 mi
7:00 PM70 °FFog.1 mph83%29.95 "Hg2 mi
6:00 PM72 °FFog.1 mph78%29.95 "Hg2 mi
5:00 PM75 °FScattered clouds.1 mph65%29.92 "Hg2 mi
4:00 PM77 °FHaze.No wind61%29.92 "Hg2 mi
3:00 PM77 °FScattered clouds.1 mph57%29.92 "Hg2 mi
2:00 PM77 °FHaze.1 mph57%29.95 "Hg2 mi
1:00 PM75 °FHaze.1 mph61%30.01 "Hg2 mi
Weather by CustomWeather, © 2014

See weather overviewHow to use our weather pages